User: anonymous   Login
Location: La Comballaz
(46.3780°N, 7.0817°E)
Time: 08:15:10
(UTC+00:00)
Language:

RS-44 - Orbit

View from above orbital plane
View from above orbital plane
View from above satellite
View from above satellite

Ground track
Ground track

The orbit data is extracted from the following two-line orbital elements,

1 44909U 19096E   22330.80938383  .00000008  00000-0 -59198-5 0  9999
2 44909  82.5185 122.4269 0216514 300.2445  57.7379 12.79716682136276
Epoch (UTC): 26 November 2022 19:25:30
Eccentricity: 0.0216514
inclination: 82.5185°
perigee height: 1175 km
apogee height: 1510 km
right ascension of ascending node: 122.4269°
argument of perigee: 300.2445°
revolutions per day: 12.79716682
mean anomaly at epoch: 57.7379°
orbit number at epoch: 13627

The dashed part of the orbit path shows where the satellite is in the earth's shadow,  

DLR